Time,TemperatureF,DewpointF,PressureIn,WindDirection,WindDirectionDegrees,WindSpeedMPH,WindSpeedGustMPH,Humidity,HourlyPrecipIn,Conditions,Clouds,dailyrainin,SoftwareType,DateUTC
2013-04-15 00:00:00,36.3,26.4,30.16,WNW,283,0.0,0.0,67,0.00,,---,0.00,VWS V14.00,2013-04-15 04:00:00,
2013-04-15 00:05:00,36.2,26.7,30.16,WNW,283,0.0,0.0,68,0.00,,---,0.00,VWS V14.00,2013-04-15 04:05:00,
2013-04-15 00:10:00,36.2,26.7,30.16,WNW,283,0.0,0.0,68,0.00,,---,0.00,VWS V14.00,2013-04-15 04:10:00,
2013-04-15 00:15:00,36.0,26.5,30.16,WNW,283,0.0,0.0,68,0.00,,---,0.00,VWS V14.00,2013-04-15 04:15:00,
2013-04-15 00:20:00,36.0,26.5,30.16,WNW,283,0.0,0.0,68,0.00,,---,0.00,VWS V14.00,2013-04-15 04:20:00,
2013-04-15 00:21:00,36.0,26.5,30.16,WNW,283,0.0,0.0,68,0.00,,---,0.00,VWS V14.00,2013-04-15 04:21:00,
2013-04-15 00:25:00,35.9,26.4,30.16,WNW,283,0.0,0.0,68,0.00,,---,0.00,VWS V14.00,2013-04-15 04:25:00,
2013-04-15 00:26:00,35.9,26.4,30.16,WNW,283,0.0,0.0,68,0.00,,---,0.00,VWS V14.00,2013-04-15 04:26:00,
2013-04-15 00:30:00,35.8,26.6,30.16,WNW,283,0.0,0.0,69,0.00,,---,0.00,VWS V14.00,2013-04-15 04:30:00,
2013-04-15 00:31:00,35.8,26.6,30.16,WNW,283,0.0,0.0,69,0.00,,---,0.00,VWS V14.00,2013-04-15 04:31:00,
2013-04-15 00:35:00,35.5,26.4,30.16,WNW,283,0.0,0.0,69,0.00,,---,0.00,VWS V14.00,2013-04-15 04:35:00,
2013-04-15 00:36:00,35.5,26.4,30.16,WNW,283,0.0,0.0,69,0.00,,---,0.00,VWS V14.00,2013-04-15 04:36:00,
2013-04-15 00:37:00,35.5,26.4,30.16,WNW,283,0.0,0.0,69,0.00,,---,0.00,VWS V14.00,2013-04-15 04:37:00,
2013-04-15 00:40:00,35.5,26.7,30.16,WNW,283,0.0,0.0,70,0.00,,---,0.00,VWS V14.00,2013-04-15 04:40:00,
2013-04-15 00:41:00,35.5,26.7,30.16,WNW,283,0.0,0.0,70,0.00,,---,0.00,VWS V14.00,2013-04-15 04:41:00,
2013-04-15 00:42:00,35.3,26.5,30.16,WNW,283,0.0,0.0,70,0.00,,---,0.00,VWS V14.00,2013-04-15 04:42:00,
2013-04-15 00:45:00,35.3,26.5,30.16,WNW,283,0.0,0.0,70,0.00,,---,0.00,VWS V14.00,2013-04-15 04:45:00,
2013-04-15 00:46:00,35.3,26.5,30.16,WNW,283,0.0,0.0,70,0.00,,---,0.00,VWS V14.00,2013-04-15 04:46:00,
2013-04-15 00:47:00,35.3,26.5,30.16,WNW,283,0.0,0.0,70,0.00,,---,0.00,VWS V14.00,2013-04-15 04:47:00,
2013-04-15 00:50:00,35.2,26.8,30.16,WNW,283,0.0,0.0,71,0.00,,---,0.00,VWS V14.00,2013-04-15 04:50:00,
2013-04-15 00:52:00,35.2,26.8,30.16,WNW,283,0.0,0.0,71,0.00,,---,0.00,VWS V14.00,2013-04-15 04:52:00,
2013-04-15 00:55:00,35.0,26.6,30.16,WNW,283,0.0,0.0,71,0.00,,---,0.00,VWS V14.00,2013-04-15 04:55:00,
2013-04-15 00:57:00,35.0,26.6,30.16,WNW,283,0.0,0.0,71,0.00,,---,0.00,VWS V14.00,2013-04-15 04:57:00,
2013-04-15 01:00:00,34.9,26.5,30.16,WNW,283,0.0,0.0,71,0.00,,---,0.00,VWS V14.00,2013-04-15 05:00:00,
2013-04-15 01:01:00,34.9,26.5,30.16,WNW,283,0.0,0.0,71,0.00,,---,0.00,VWS V14.00,2013-04-15 05:01:00,
2013-04-15 01:02:00,34.9,26.5,30.16,WNW,283,0.0,0.0,71,0.00,,---,0.00,VWS V14.00,2013-04-15 05:02:00,
2013-04-15 01:06:00,34.7,26.6,30.16,WNW,283,0.0,0.0,72,0.00,,---,0.00,VWS V14.00,2013-04-15 05:06:00,
2013-04-15 01:07:00,34.7,26.6,30.16,WNW,283,0.0,0.0,72,0.00,,---,0.00,VWS V14.00,2013-04-15 05:07:00,
2013-04-15 01:11:00,34.6,26.5,30.16,WNW,283,0.0,0.0,72,0.00,,---,0.00,VWS V14.00,2013-04-15 05:11:00,
2013-04-15 01:12:00,34.6,26.5,30.16,WNW,283,0.0,0.0,72,0.00,,---,0.00,VWS V14.00,2013-04-15 05:12:00,
2013-04-15 01:15:00,34.6,26.5,30.17,WNW,283,0.0,0.0,72,0.00,,---,0.00,VWS V14.00,2013-04-15 05:15:00,
2013-04-15 01:16:00,34.6,26.5,30.17,WNW,283,0.0,1.0,72,0.00,,---,0.00,VWS V14.00,2013-04-15 05:16:00,
2013-04-15 01:17:00,34.4,26.3,30.17,WNW,283,0.0,1.0,72,0.00,,---,0.00,VWS V14.00,2013-04-15 05:17:00,
2013-04-15 01:18:00,34.4,26.3,30.17,WNW,283,0.0,1.0,72,0.00,,---,0.00,VWS V14.00,2013-04-15 05:18:00,
2013-04-15 01:21:00,34.4,26.3,30.17,WNW,283,0.0,1.0,72,0.00,,---,0.00,VWS V14.00,2013-04-15 05:21:00,
2013-04-15 01:23:00,34.4,26.3,30.17,WNW,283,0.0,1.0,72,0.00,,---,0.00,VWS V14.00,2013-04-15 05:23:00,
2013-04-15 01:26:00,34.3,26.2,30.17,WNW,283,0.0,1.0,72,0.00,,---,0.00,VWS V14.00,2013-04-15 05:26:00,
2013-04-15 01:28:00,34.3,26.6,30.17,WNW,283,0.0,1.0,73,0.00,,---,0.00,VWS V14.00,2013-04-15 05:28:00,
2013-04-15 01:30:00,34.3,26.6,30.17,WNW,283,0.0,1.0,73,0.00,,---,0.00,VWS V14.00,2013-04-15 05:30:00,
2013-04-15 01:31:00,34.3,26.6,30.17,WNW,283,0.0,0.0,73,0.00,,---,0.00,VWS V14.00,2013-04-15 05:31:00,
2013-04-15 01:33:00,34.3,26.6,30.17,WNW,283,0.0,0.0,73,0.00,,---,0.00,VWS V14.00,2013-04-15 05:33:00,
2013-04-15 01:37:00,34.1,26.4,30.17,WNW,283,0.0,0.0,73,0.00,,---,0.00,VWS V14.00,2013-04-15 05:37:00,
2013-04-15 01:38:00,34.1,26.4,30.17,WNW,283,0.0,0.0,73,0.00,,---,0.00,VWS V14.00,2013-04-15 05:38:00,
2013-04-15 01:42:00,34.1,26.4,30.17,WNW,283,0.0,0.0,73,0.00,,---,0.00,VWS V14.00,2013-04-15 05:42:00,
2013-04-15 01:43:00,34.1,26.4,30.16,WNW,283,0.0,0.0,73,0.00,,---,0.00,VWS V14.00,2013-04-15 05:43:00,
2013-04-15 01:45:00,34.1,26.4,30.16,WNW,283,0.0,0.0,73,0.00,,---,0.00,VWS V14.00,2013-04-15 05:45:00,
2013-04-15 01:47:00,34.1,26.4,30.16,WNW,283,0.0,0.0,73,0.00,,---,0.00,VWS V14.00,2013-04-15 05:47:00,
2013-04-15 01:48:00,34.1,26.4,30.16,WNW,283,0.0,0.0,73,0.00,,---,0.00,VWS V14.00,2013-04-15 05:48:00,
2013-04-15 01:52:00,34.1,26.4,30.16,WNW,283,0.0,0.0,73,0.00,,---,0.00,VWS V14.00,2013-04-15 05:52:00,
2013-04-15 01:53:00,34.1,26.4,30.16,WNW,283,0.0,0.0,73,0.00,,---,0.00,VWS V14.00,2013-04-15 05:53:00,
2013-04-15 01:57:00,34.1,26.7,30.16,WNW,283,0.0,0.0,74,0.00,,---,0.00,VWS V14.00,2013-04-15 05:57:00,
2013-04-15 01:58:00,34.1,26.7,30.17,WNW,283,0.0,0.0,74,0.00,,---,0.00,VWS V14.00,2013-04-15 05:58:00,
2013-04-15 02:00:00,34.1,26.7,30.17,WNW,283,0.0,0.0,74,0.00,,---,0.00,VWS V14.00,2013-04-15 06:00:00,
2013-04-15 02:02:00,34.0,26.6,30.17,WNW,283,0.0,0.0,74,0.00,,---,0.00,VWS V14.00,2013-04-15 06:02:00,
2013-04-15 02:03:00,34.0,26.6,30.17,WNW,283,0.0,0.0,74,0.00,,---,0.00,VWS V14.00,2013-04-15 06:03:00,
2013-04-15 02:07:00,34.1,26.4,30.17,WNW,283,0.0,0.0,73,0.00,,---,0.00,VWS V14.00,2013-04-15 06:07:00,
2013-04-15 02:08:00,34.1,26.4,30.17,WNW,283,0.0,0.0,73,0.00,,---,0.00,VWS V14.00,2013-04-15 06:08:00,
2013-04-15 02:09:00,34.1,26.4,30.17,WNW,283,0.0,0.0,73,0.00,,---,0.00,VWS V14.00,2013-04-15 06:09:00,
2013-04-15 02:12:00,34.1,26.4,30.17,WNW,283,0.0,0.0,73,0.00,,---,0.00,VWS V14.00,2013-04-15 06:12:00,
2013-04-15 02:13:00,34.1,26.4,30.17,WNW,283,0.0,0.0,73,0.00,,---,0.00,VWS V14.00,2013-04-15 06:13:00,
2013-04-15 02:14:00,34.0,26.3,30.17,WNW,283,0.0,0.0,73,0.00,,---,0.00,VWS V14.00,2013-04-15 06:14:00,
2013-04-15 02:15:00,34.0,26.3,30.17,WNW,283,0.0,0.0,73,0.00,,---,0.00,VWS V14.00,2013-04-15 06:15:00,
2013-04-15 02:17:00,34.0,26.6,30.17,WNW,283,0.0,0.0,74,0.00,,---,0.00,VWS V14.00,2013-04-15 06:17:00,
2013-04-15 02:18:00,34.0,26.6,30.17,WNW,283,0.0,0.0,74,0.00,,---,0.00,VWS V14.00,2013-04-15 06:18:00,
2013-04-15 02:19:00,34.0,26.6,30.17,WNW,283,0.0,0.0,74,0.00,,---,0.00,VWS V14.00,2013-04-15 06:19:00,
2013-04-15 02:22:00,33.8,26.4,30.17,WNW,283,0.0,0.0,74,0.00,,---,0.00,VWS V14.00,2013-04-15 06:22:00,
2013-04-15 02:23:00,33.8,26.4,30.17,WNW,283,0.0,0.0,74,0.00,,---,0.00,VWS V14.00,2013-04-15 06:23:00,
2013-04-15 02:24:00,33.8,26.4,30.17,WNW,283,0.0,0.0,74,0.00,,---,0.00,VWS V14.00,2013-04-15 06:24:00,
2013-04-15 02:28:00,33.7,26.3,30.17,WNW,283,0.0,0.0,74,0.00,,---,0.00,VWS V14.00,2013-04-15 06:28:00,
2013-04-15 02:29:00,33.7,26.3,30.18,WNW,283,0.0,0.0,74,0.00,,---,0.00,VWS V14.00,2013-04-15 06:29:00,
2013-04-15 02:30:00,33.7,26.3,30.18,WNW,283,0.0,0.0,74,0.00,,---,0.00,VWS V14.00,2013-04-15 06:30:00,
2013-04-15 02:33:00,33.7,26.3,30.18,WNW,283,0.0,1.0,74,0.00,,---,0.00,VWS V14.00,2013-04-15 06:33:00,
2013-04-15 02:34:00,33.7,26.3,30.18,WNW,283,0.0,1.0,74,0.00,,---,0.00,VWS V14.00,2013-04-15 06:34:00,
2013-04-15 02:38:00,33.7,26.3,30.18,WNW,283,0.0,1.0,74,0.00,,---,0.00,VWS V14.00,2013-04-15 06:38:00,
2013-04-15 02:39:00,33.5,26.1,30.18,WNW,283,0.0,1.0,74,0.00,,---,0.00,VWS V14.00,2013-04-15 06:39:00,
2013-04-15 02:43:00,33.5,26.1,30.18,WNW,283,0.0,1.0,74,0.00,,---,0.00,VWS V14.00,2013-04-15 06:43:00,
2013-04-15 02:44:00,33.4,26.0,30.18,WNW,283,0.0,0.0,74,0.00,,---,0.00,VWS V14.00,2013-04-15 06:44:00,
2013-04-15 02:45:00,33.4,26.0,30.18,WNW,283,0.0,0.0,74,0.00,,---,0.00,VWS V14.00,2013-04-15 06:45:00,
2013-04-15 03:00:00,33.1,26.4,30.18,North,0,0.0,0.0,76,0.00,,---,0.00,VWS V14.00,2013-04-15 07:00:00,
2013-04-15 03:15:00,32.7,26.0,30.18,North,0,0.0,0.0,76,0.00,,---,0.00,VWS V14.00,2013-04-15 07:15:00,
2013-04-15 03:30:00,32.2,26.1,30.18,North,0,0.0,0.0,78,0.00,,---,0.00,VWS V14.00,2013-04-15 07:30:00,
2013-04-15 03:45:00,31.6,25.5,30.18,North,0,0.0,0.0,78,0.00,,---,0.00,VWS V14.00,2013-04-15 07:45:00,
2013-04-15 04:00:00,31.5,26.0,30.20,North,0,0.0,0.0,80,0.00,,---,0.00,VWS V14.00,2013-04-15 08:00:00,
2013-04-15 04:15:00,31.2,25.8,30.21,North,0,0.0,0.0,80,0.00,,---,0.00,VWS V14.00,2013-04-15 08:15:00,
2013-04-15 04:30:00,31.0,25.9,30.21,North,0,0.0,0.0,81,0.00,,---,0.00,VWS V14.00,2013-04-15 08:30:00,
2013-04-15 04:45:00,30.6,25.8,30.21,North,0,0.0,0.0,82,0.00,,---,0.00,VWS V14.00,2013-04-15 08:45:00,
2013-04-15 05:00:00,30.4,25.9,30.22,North,0,0.0,0.0,83,0.00,,---,0.00,VWS V14.00,2013-04-15 09:00:00,
2013-04-15 05:15:00,30.1,25.6,30.22,North,0,0.0,0.0,83,0.00,,---,0.00,VWS V14.00,2013-04-15 09:15:00,
2013-04-15 05:30:00,29.7,25.2,30.23,North,0,0.0,0.0,83,0.00,,---,0.00,VWS V14.00,2013-04-15 09:30:00,
2013-04-15 05:45:00,29.5,25.3,30.24,North,0,0.0,0.0,84,0.00,,---,0.00,VWS V14.00,2013-04-15 09:45:00,
2013-04-15 06:00:00,29.4,25.5,30.24,North,0,0.0,0.0,85,0.00,,---,0.00,VWS V14.00,2013-04-15 10:00:00,
2013-04-15 06:15:00,29.5,25.6,30.25,North,0,0.0,0.0,85,0.00,,---,0.00,VWS V14.00,2013-04-15 10:15:00,
2013-04-15 06:30:00,29.7,26.0,30.26,North,0,0.0,0.0,86,0.00,,---,0.00,VWS V14.00,2013-04-15 10:30:00,
2013-04-15 06:45:00,30.0,26.3,30.27,WNW,292,0.0,1.0,86,0.00,,---,0.00,VWS V14.00,2013-04-15 10:45:00,
2013-04-15 07:00:00,30.6,27.2,30.28,WNW,292,0.0,0.0,87,0.00,,---,0.00,VWS V14.00,2013-04-15 11:00:00,
2013-04-15 07:15:00,31.5,27.8,30.29,WNW,292,0.0,0.0,86,0.00,,---,0.00,VWS V14.00,2013-04-15 11:15:00,
2013-04-15 07:30:00,32.9,28.9,30.30,WNW,292,0.0,0.0,85,0.00,,---,0.00,VWS V14.00,2013-04-15 11:30:00,
2013-04-15 07:45:00,34.7,29.5,30.30,WNW,292,0.0,1.0,81,0.00,,---,0.00,VWS V14.00,2013-04-15 11:45:00,
2013-04-15 08:00:00,36.3,29.8,30.30,WNW,292,0.0,1.0,77,0.00,,---,0.00,VWS V14.00,2013-04-15 12:00:00,
2013-04-15 08:15:00,38.0,29.8,30.31,WNW,292,0.0,2.0,72,0.00,,---,0.00,VWS V14.00,2013-04-15 12:15:00,
2013-04-15 08:30:00,39.8,30.1,30.31,WNW,292,0.0,3.0,68,0.00,,---,0.00,VWS V14.00,2013-04-15 12:30:00,
2013-04-15 08:45:00,41.3,30.4,30.31,WNW,292,0.0,1.0,65,0.00,,---,0.00,VWS V14.00,2013-04-15 12:45:00,
2013-04-15 09:00:00,43.2,30.3,30.31,WNW,292,0.0,3.0,60,0.00,,---,0.00,VWS V14.00,2013-04-15 13:00:00,
2013-04-15 09:15:00,44.6,29.9,30.31,WNW,292,0.0,3.0,56,0.00,,---,0.00,VWS V14.00,2013-04-15 13:15:00,
2013-04-15 09:30:00,46.2,30.0,30.31,ENE,68,0.0,3.0,53,0.00,,---,0.00,VWS V14.00,2013-04-15 13:30:00,
2013-04-15 09:45:00,47.6,29.4,30.31,East,90,0.0,3.0,49,0.00,,---,0.00,VWS V14.00,2013-04-15 13:45:00,
2013-04-15 10:00:00,48.5,29.2,30.32,ENE,68,1.0,6.0,47,0.00,,---,0.00,VWS V14.00,2013-04-15 14:00:00,
2013-04-15 10:15:00,50.1,29.0,30.32,East,90,0.0,3.0,44,0.00,,---,0.00,VWS V14.00,2013-04-15 14:15:00,
2013-04-15 10:30:00,50.5,29.4,30.32,SW,225,1.0,4.0,44,0.00,,---,0.00,VWS V14.00,2013-04-15 14:30:00,
2013-04-15 10:45:00,50.5,27.1,30.33,South,180,1.0,7.0,40,0.00,,---,0.00,VWS V14.00,2013-04-15 14:45:00,
2013-04-15 11:00:00,49.9,27.1,30.33,SSW,202,1.0,6.0,41,0.00,,---,0.00,VWS V14.00,2013-04-15 15:00:00,
2013-04-15 11:15:00,51.0,28.7,30.32,West,270,1.0,4.0,42,0.00,,---,0.00,VWS V14.00,2013-04-15 15:15:00,
2013-04-15 11:30:00,51.9,27.7,30.31,SW,225,1.0,5.0,39,0.00,,---,0.00,VWS V14.00,2013-04-15 15:30:00,
2013-04-15 11:45:00,53.1,27.5,30.31,NW,315,1.0,7.0,37,0.00,,---,0.00,VWS V14.00,2013-04-15 15:45:00,
2013-04-15 12:00:00,53.1,26.9,30.30,WSW,248,2.0,9.0,36,0.00,,---,0.00,VWS V14.00,2013-04-15 16:00:00,
2013-04-15 12:15:00,52.6,27.1,30.30,WSW,248,3.0,10.0,37,0.00,,---,0.00,VWS V14.00,2013-04-15 16:15:00,
2013-04-15 12:30:00,53.2,24.9,30.30,SW,225,3.0,9.0,33,0.00,,---,0.00,VWS V14.00,2013-04-15 16:30:00,
2013-04-15 12:45:00,54.4,24.4,30.30,South,180,2.0,7.0,31,0.00,,---,0.00,VWS V14.00,2013-04-15 16:45:00,
2013-04-15 13:00:00,55.6,23.9,30.28,SSE,158,1.0,6.0,29,0.00,,---,0.00,VWS V14.00,2013-04-15 17:00:00,
2013-04-15 13:15:00,55.6,23.9,30.28,South,180,2.0,9.0,29,0.00,,---,0.00,VWS V14.00,2013-04-15 17:15:00,
2013-04-15 13:30:00,57.3,27.7,30.28,SE,135,1.0,8.0,32,0.00,,---,0.00,VWS V14.00,2013-04-15 17:30:00,
2013-04-15 13:45:00,56.9,28.8,30.29,SSW,202,3.0,7.0,34,0.00,,---,0.00,VWS V14.00,2013-04-15 17:45:00,
2013-04-15 14:00:00,57.0,26.7,30.28,South,180,1.0,7.0,31,0.00,,---,0.00,VWS V14.00,2013-04-15 18:00:00,
2013-04-15 14:15:00,57.5,30.1,30.28,SSW,202,2.0,10.0,35,0.00,,---,0.00,VWS V14.00,2013-04-15 18:15:00,
2013-04-15 14:30:00,56.9,30.9,30.28,SSE,158,2.0,9.0,37,0.00,,---,0.00,VWS V14.00,2013-04-15 18:30:00,
2013-04-15 14:45:00,56.0,32.0,30.28,SSE,158,2.0,10.0,40,0.00,,---,0.00,VWS V14.00,2013-04-15 18:45:00,
2013-04-15 15:00:00,54.8,31.0,30.28,SE,135,2.0,9.0,40,0.00,,---,0.00,VWS V14.00,2013-04-15 19:00:00,
2013-04-15 15:15:00,54.2,31.6,30.27,SSE,158,2.0,7.0,42,0.00,,---,0.00,VWS V14.00,2013-04-15 19:15:00,
2013-04-15 15:30:00,52.6,30.8,30.27,ESE,112,2.0,6.0,43,0.00,,---,0.00,VWS V14.00,2013-04-15 19:30:00,
2013-04-15 15:45:00,51.6,31.0,30.27,SE,135,2.0,6.0,45,0.00,,---,0.00,VWS V14.00,2013-04-15 19:45:00,
2013-04-15 16:00:00,51.1,30.5,30.27,SE,135,1.0,5.0,45,0.00,,---,0.00,VWS V14.00,2013-04-15 20:00:00,
2013-04-15 16:15:00,50.2,30.8,30.26,SE,135,2.0,7.0,47,0.00,,---,0.00,VWS V14.00,2013-04-15 20:15:00,
2013-04-15 16:30:00,50.5,31.6,30.27,SE,135,2.0,6.0,48,0.00,,---,0.00,VWS V14.00,2013-04-15 20:30:00,
2013-04-15 16:45:00,50.4,31.5,30.26,ESE,112,2.0,5.0,48,0.00,,---,0.00,VWS V14.00,2013-04-15 20:45:00,
2013-04-15 17:00:00,51.0,31.5,30.26,SE,135,2.0,6.0,47,0.00,,---,0.00,VWS V14.00,2013-04-15 21:00:00,
2013-04-15 17:15:00,51.4,31.9,30.26,ESE,112,2.0,5.0,47,0.00,,---,0.00,VWS V14.00,2013-04-15 21:15:00,
2013-04-15 17:30:00,51.9,30.7,30.27,ESE,112,1.0,6.0,44,0.00,,---,0.00,VWS V14.00,2013-04-15 21:30:00,
2013-04-15 17:45:00,51.9,32.8,30.27,SE,135,1.0,9.0,48,0.00,,---,0.00,VWS V14.00,2013-04-15 21:45:00,
2013-04-15 18:00:00,50.7,34.2,30.27,SE,135,2.0,7.0,53,0.00,,---,0.00,VWS V14.00,2013-04-15 22:00:00,
2013-04-15 18:15:00,49.9,34.4,30.28,ESE,112,2.0,6.0,55,0.00,,---,0.00,VWS V14.00,2013-04-15 22:15:00,
2013-04-15 18:30:00,48.8,34.3,30.28,ESE,112,2.0,5.0,57,0.00,,---,0.00,VWS V14.00,2013-04-15 22:30:00,
2013-04-15 18:45:00,48.2,34.6,30.28,ESE,112,1.0,6.0,59,0.00,,---,0.00,VWS V14.00,2013-04-15 22:45:00,
2013-04-15 19:00:00,47.3,34.5,30.28,ESE,112,2.0,5.0,61,0.00,,---,0.00,VWS V14.00,2013-04-15 23:00:00,
2013-04-15 19:15:00,46.7,35.2,30.29,ESE,112,1.0,6.0,64,0.00,,---,0.00,VWS V14.00,2013-04-15 23:15:00,
2013-04-15 19:30:00,46.2,35.1,30.31,East,90,0.0,2.0,65,0.00,,---,0.00,VWS V14.00,2013-04-15 23:30:00,
2013-04-15 19:45:00,45.8,35.5,30.31,East,90,0.0,2.0,67,0.00,,---,0.00,VWS V14.00,2013-04-15 23:45:00,
2013-04-15 20:00:00,45.4,35.5,30.32,East,90,0.0,1.0,68,0.00,,---,0.00,VWS V14.00,2013-04-16 00:00:00,
2013-04-15 20:15:00,44.8,35.6,30.31,East,90,0.0,2.0,70,0.00,,---,0.00,VWS V14.00,2013-04-16 00:15:00,
2013-04-15 20:30:00,44.5,36.0,30.31,East,90,0.0,2.0,72,0.00,,---,0.00,VWS V14.00,2013-04-16 00:30:00,
2013-04-15 20:45:00,44.2,36.1,30.31,East,90,0.0,2.0,73,0.00,,---,0.00,VWS V14.00,2013-04-16 00:45:00,
2013-04-15 21:00:00,44.1,36.4,30.31,East,90,0.0,2.0,74,0.00,,---,0.00,VWS V14.00,2013-04-16 01:00:00,
2013-04-15 21:15:00,43.8,36.1,30.32,East,90,0.0,1.0,74,0.00,,---,0.00,VWS V14.00,2013-04-16 01:15:00,
2013-04-15 21:30:00,43.3,35.9,30.32,East,90,0.0,0.0,75,0.00,,---,0.00,VWS V14.00,2013-04-16 01:30:00,
2013-04-15 21:45:00,42.9,35.9,30.32,East,90,0.0,0.0,76,0.00,,---,0.00,VWS V14.00,2013-04-16 01:45:00,
2013-04-15 22:00:00,42.9,35.9,30.32,East,90,0.0,0.0,76,0.00,,---,0.00,VWS V14.00,2013-04-16 02:00:00,
2013-04-15 22:15:00,42.8,35.4,30.32,East,90,0.0,2.0,75,0.00,,---,0.00,VWS V14.00,2013-04-16 02:15:00,
2013-04-15 22:30:00,44.2,34.3,30.33,SSW,202,1.0,5.0,68,0.00,,---,0.00,VWS V14.00,2013-04-16 02:30:00,
2013-04-15 22:45:00,44.9,34.2,30.33,South,180,1.0,7.0,66,0.00,,---,0.00,VWS V14.00,2013-04-16 02:45:00,
2013-04-15 23:00:00,45.1,34.0,30.33,SSW,202,2.0,7.0,65,0.00,,---,0.00,VWS V14.00,2013-04-16 03:00:00,
2013-04-15 23:15:00,44.8,33.8,30.33,SSW,202,1.0,7.0,65,0.00,,---,0.00,VWS V14.00,2013-04-16 03:15:00,
2013-04-15 23:30:00,44.2,34.0,30.32,SSW,202,1.0,5.0,67,0.00,,---,0.00,VWS V14.00,2013-04-16 03:30:00,
2013-04-15 23:45:00,43.9,34.0,30.33,SSW,202,1.0,5.0,68,0.00,,---,0.00,VWS V14.00,2013-04-16 03:45:00,